User: anonymous   Login
Location: Bandys
(35.4750°N, 81.0830°W)
Time: 12:01:43
(UTC-04:00)
Language:

DELTA 2 R/B (1) - Orbit

View from above orbital plane
View from above orbital plane
View from above satellite
View from above satellite

Ground track
Ground track

The orbit data is extracted from the following two-line orbital elements,

1 27665U 03005C   17179.80267503 -.00000122 +00000-0 -14614-4 0  9997
2 27665 039.5770 051.1201 0008806 334.3861 071.5074 14.28446704752502
Epoch (UTC): 28 June 2017 19:15:51
Eccentricity: 0.0008806
inclination: 39.5770°
perigee height: 790 km
apogee height: 803 km
right ascension of ascending node: 51.1201°
argument of perigee: 334.3861°
revolutions per day: 14.28446704
mean anomaly at epoch: 71.5074°
orbit number at epoch: 75250

The dashed part of the orbit path shows where the satellite is in the earth's shadow,  

DLR